Regional Weather Roundup
Issued by NWS

Home | Current Version | Previous Version | Graphics & Text | Print | Product List | Glossary On
Versions: 1 2 3 4 5 6 7 8 9 10 11 12 13 14 15 16 17 18 19 20 21 22 23 24 25 26 27 28 29 30 31 32 33 34 35 36 37 38 39 40 41 42 43 44 45 46 47 48 49 50
883
ASUS43 KMKX 240821
RWRWI

WISCONSIN REGIONAL WEATHER ROUNDUP
NATIONAL WEATHER SERVICE MILWAUKEE/SULLIVAN WI
300 AM CDT SUN SEP 24 2017

NOTE: "FAIR" INDICATES FEW OR NO CLOUDS BELOW 12,000 FEET WITH NO
SIGNIFICANT WEATHER AND/OR OBSTRUCTIONS TO VISIBILITY.

WIZ001-002-006>008-014>016-023>028-240900-
NORTHWEST WISCONSIN

CITY           SKY/WX    TMP DP  RH WIND       PRES   REMARKS
SUPERIOR ARPT  CLOUDY    66  64  93 E6        29.96S
ASHLAND        FOG       63  62  97 CALM      29.97S VSB 3/4
HAYWARD        CLEAR     70  63  78 S5        29.99S
SIREN          PTCLDY    65  65  97 CALM      29.96S FOG
CUMBERLAND     PTCLDY    68  63  83 SE6       29.99S
RICE LAKE      PTCLDY    68  64  87 CALM      30.01S
CHETEK           N/A     68  66  94 CALM      30.00S
LADYSMITH      CLEAR     72  64  76 SE5       30.03S
EAU CLAIRE     PTCLDY    69  64  84 CALM      29.99R
MENOMONIE      PTCLDY    68  65  89 CALM      29.99S
NEW RICHMOND   PTCLDY    70  62  75 S6        29.97S
OSCEOLA        PTCLDY    72  64  75 S6        29.97F
$$

WIZ003>005-009-010-017-018-240900-
NORTH CENTRAL WISCONSIN

CITY           SKY/WX    TMP DP  RH WIND       PRES   REMARKS
MANITOWISH WTR NOT AVBL
ARBOR VITAE    PTCLDY    72  64  77 S6        30.06S
WOODRUFF       PTCLDY    72  64  77 S6        30.06S
RHINELANDER    PTCLDY    69  64  84 CALM      30.08S
EAGLE RIVER    CLOUDY    67  61  80 S3        30.07R
LAND O LAKES   PTCLDY    67  64  87 CALM      30.09S
PHILLIPS       PTCLDY    70  65  82 S7        30.03S
TOMAHAWK       PTCLDY    63  62  95 CALM      30.07S
MEDFORD        CLEAR     66  62  86 S6        30.06R
MERRILL        CLEAR     60  60 100 CALM      30.07S
$$

WIZ029-030-035-036-043>047-240900-
CENTRAL WISCONSIN

CITY           SKY/WX    TMP DP  RH WIND       PRES   REMARKS
WAUSAU         CLEAR     67  64  90 SE5       30.05S
MOSINEE        PTCLDY    66  63  88 SE3       30.07S
MARSHFIELD     CLEAR     66  60  81 S5        30.05S
STEVENS POINT  CLEAR     63  63 100 CALM      30.06S
WAUPACA        CLEAR     68  67  98 CALM      30.06S FOG
WAUTOMA        CLEAR     64  63  96 CALM      30.06S
WISC RAPIDS    CLEAR     70  64  81 S3        30.06S
CAMP DOUGLAS   CLEAR     65  65  99 SE7       30.04S
$$

WIZ011>013-019>022-031-037>040-048>050-240900-
NORTHEAST WISCONSIN

CITY           SKY/WX    TMP DP  RH WIND       PRES   REMARKS
ANTIGO         CLEAR     66  64  93 S6        30.09R
SHAWANO        CLEAR     71  66  84 CALM      30.06S
OCONTO         CLEAR     64  63  95 CALM      30.05S
STURGEON BAY   CLEAR     73  65  75 S9        30.08R
GREEN BAY      PTCLDY    70  67  90 S3        30.06S
MANITOWOC      CLEAR     68  64  87 S5        30.08S
APPLETON       CLEAR     68  61  77 S3        30.06R
CLINTONVILLE   CLEAR     64  63  94 CALM      30.06S FOG
OSHKOSH        CLEAR     68  64  87 S6        30.06S
$$

WIZ032>034-041-042-053>061-240900-
SOUTHWEST WISCONSIN

CITY           SKY/WX    TMP DP  RH WIND       PRES   REMARKS
LA CROSSE      CLEAR     72  66  81 CALM      30.00S
SPARTA         CLEAR     65  62  90 CALM      30.04R
VIROQUA        CLEAR     69  65  85 SE6       30.05S
BOSCOBEL       CLEAR     64  63  96 CALM      30.03S FOG
PRAIRIE DU CHI CLEAR     67  62  84 CALM      30.02R
PLATTEVILLE    CLEAR     71  65  81 E6        30.05S
$$

WIZ056-057-062-063-064-067-068-240900-
SOUTH CENTRAL WISCONSIN

CITY           SKY/WX    TMP DP  RH WIND       PRES   REMARKS
REEDSBURG      CLEAR     65  65 100 CALM      30.05S
BARABOO/DELLS  CLEAR     72  62  71 S6        30.06S
LONE ROCK      CLEAR     64  63  96 NE3       30.04S
MINERAL POINT  CLEAR     72  64  78 SE5       30.06S
MADISON        CLEAR     73  66  78 S6        30.06S
MIDDLETON      CLEAR     68  63  84 CALM      30.07S
WATERTOWN      CLEAR     66  66 100 CALM      30.07S
MONROE         CLEAR     70  61  73 SE6       30.07S
JANESVILLE     CLEAR     68  66  94 E3        30.06S
$$

WIZ051-052-058>065-066-070>072-240900-
SOUTHEAST WISCONSIN

CITY           SKY/WX    TMP DP  RH WIND       PRES   REMARKS
MILWAUKEE      CLEAR     70  66  87 SE3       30.07F
WAUKESHA       CLEAR     70  63  78 CALM      30.10S
MILWAUKEE/TIMM CLEAR     68  61  77 CALM      30.09S
RACINE         CLEAR     72  69  90 CALM      30.10S
BURLINGTON       N/A     63  63 100 CALM      30.08F FOG
KENOSHA        CLEAR     67  65  93 CALM      30.08S
FOND DU LAC    CLEAR     70  63  78 S7        30.07S
SHEBOYGAN      CLEAR     64  64 100 CALM      30.08S FOG
WEST BEND        N/A     63  63 100 CALM      30.09S
JUNEAU         CLEAR     68  64  86 CALM      30.09S
$$

LSZ147-162-240900-
LAKE SUPERIOR

STATION/POSITION TIME  TEMP    WIND        PRES    WAVE
                       AIR SEA DIR/SP/G            HT/PER
                 (UTC) (F)     (DEG/KT/KT) (MB)    (FT/S)
W MID LAKE BUOY  0750   60 56   50/ 10/ 12 1014.6F   0
DEVILS ISLAND    0800   63      40/  9/  9 1014.6F
SAXON HARBOR     0740   66      CALM  /  1 1014.2F
$$

LMZ867-665-643>646-240900-
LAKE MICHIGAN

STATION/POSITION TIME  TEMP    WIND        PRES    WAVE
                       AIR SEA DIR/SP/G            HT/PER
                 (UTC) (F)     (DEG/KT/KT) (MB)    (FT/S)
S GREEN BAY BUOY 0800   72 69  160/  8/ 10 1017.6
N MID LAKE BUOY  0750   68 67  190/  6/  8 1018.6R   1/ 4
NORTHPORT PIER   0740   69     150/  5/  7 1017.6R
KEWAUNEE LAKESHO 0754   64     180/  6/  7 1017.5F
SHEBOYGAN LAKESH 0800   72     200/  6/  6 1018.0F
PORT WASHINGTON  0730   70      CALM  /  2 1019.3S
ATWATER BUOY     0709   70 65  160/  6/  6 1018.6
MILWAUKEE LAKESH 0800   69     100/  1/  2   N/A
S MID LAKE BUOY  0750   73 70  120/  6/  6 1018.7R   0
KENOSHA   LAKESH 0800   71        CALM     1018.3
$$

TC  - TEMPERATURE IN CELSIUS
VSB - VISIBILITY IN STATUTE MILES
WCI - WIND CHILL INDEX
HX  - HEAT INDEX





USA.gov is the U.S. government's official web portal to all federal, state and local government web resources and services.